TimePST,TemperatureF,Dew PointF,Humidity,Sea Level PressureIn,VisibilityMPH,Wind Direction,Wind SpeedMPH,Gust SpeedMPH,PrecipitationIn,Events,Conditions,WindDirDegrees,DateUTC
12:53 AM,43.0,39.0,86,29.99,10.0,WNW,3.5,-,N/A,,Clear,300,2012-11-10 08:53:00
1:53 AM,42.1,39.0,89,29.99,10.0,Calm,Calm,-,N/A,,Clear,0,2012-11-10 09:53:00
2:53 AM,41.0,37.9,89,29.99,10.0,Calm,Calm,-,N/A,,Clear,0,2012-11-10 10:53:00
3:53 AM,42.1,37.9,85,30.00,10.0,Calm,Calm,-,N/A,,Clear,0,2012-11-10 11:53:00
4:53 AM,43.0,37.9,82,30.01,10.0,Calm,Calm,-,N/A,,Clear,0,2012-11-10 12:53:00
5:53 AM,43.0,37.0,80,30.03,10.0,West,4.6,-,N/A,,Clear,260,2012-11-10 13:53:00
6:53 AM,43.0,37.9,82,30.05,10.0,Calm,Calm,-,N/A,,Clear,0,2012-11-10 14:53:00
7:53 AM,45.0,39.0,80,30.07,10.0,Calm,Calm,-,N/A,,Clear,0,2012-11-10 15:53:00
8:53 AM,50.0,39.9,68,30.09,10.0,Calm,Calm,-,N/A,,Clear,0,2012-11-10 16:53:00
9:53 AM,53.1,39.0,59,30.11,10.0,West,3.5,-,N/A,,Scattered Clouds,260,2012-11-10 17:53:00
10:53 AM,55.0,37.0,51,30.12,10.0,Variable,5.8,-,N/A,,Scattered Clouds,0,2012-11-10 18:53:00
11:53 AM,57.0,36.0,45,30.11,10.0,WSW,8.1,-,N/A,,Mostly Cloudy,250,2012-11-10 19:53:00
12:53 PM,57.9,34.0,41,30.10,10.0,Calm,Calm,-,N/A,,Mostly Cloudy,0,2012-11-10 20:53:00
1:53 PM,59.0,30.9,35,30.10,10.0,WSW,5.8,-,N/A,,Scattered Clouds,250,2012-11-10 21:53:00
2:53 PM,59.0,30.9,35,30.11,10.0,WNW,9.2,-,N/A,,Scattered Clouds,300,2012-11-10 22:53:00
3:53 PM,57.0,32.0,39,30.12,10.0,West,8.1,-,N/A,,Clear,270,2012-11-10 23:53:00
4:53 PM,54.0,34.0,47,30.13,10.0,WNW,5.8,-,N/A,,Clear,290,2012-11-11 00:53:00
5:53 PM,52.0,37.0,57,30.16,10.0,Calm,Calm,-,N/A,,Clear,0,2012-11-11 01:53:00
6:53 PM,48.9,39.9,71,30.18,10.0,SSE,3.5,-,N/A,,Clear,150,2012-11-11 02:53:00
9:53 PM,42.1,37.0,82,30.23,10.0,Calm,Calm,-,N/A,,Clear,0,2012-11-11 05:53:00
10:53 PM,42.1,36.0,79,30.24,10.0,Calm,Calm,-,N/A,,Clear,0,2012-11-11 06:53:00
11:53 PM,39.0,36.0,89,30.25,10.0,East,4.6,-,N/A,,Clear,80,2012-11-11 07:53:00